CW6391 Weather Reports


Display with metric or nautical units.
time (UTC)temp
F
wind
direction
speed
MPH
gust
MPH
rain 1hr
in
rain 24hr
in
rain mn
in
humidity
%
barometer
mb
20260906070607 60 191 0.0 2.0 0.00 0.00 0.00 62 1027.2
20260906070107 59 231 1.0 2.0 0.00 0.00 0.00 63 1027.6
20260906065611 59 65 1.0 2.0 0.00 0.00 0.00 62 1027.2
20260906065111 58 97 0.0 2.0 0.00 0.00 0.00 64 1027.6
20260906064608 58 70 0.0 1.0 0.00 0.00 0.00 66 1027.6
20260906064107 58 281 0.0 1.0 0.00 0.00 0.00 65 1027.6
20260906063608 56 173 0.0 2.0 0.00 0.00 0.00 68 1027.2
20260906063107 55 135 1.0 2.0 0.00 0.00 0.00 69 1027.2
20260906062611 55 127 0.0 2.0 0.00 0.00 0.00 71 1027.2
20260906062110 54 155 1.0 2.0 0.00 0.00 0.00 72 1027.2
20260906061607 54 160 1.0 3.0 0.00 0.00 0.00 72 1027.2
20260906061111 53 83 1.0 3.0 0.00 0.00 0.00 75 1026.8
20260906060608 52 12 1.0 3.0 0.00 0.00 0.00 75 1026.8
20260906060114 53 353 2.0 3.0 0.00 0.00 0.00 73 1026.8
20260906055607 54 33 1.0 2.0 0.00 0.00 0.00 72 1027.2
20260906055107 54 5 0.0 1.0 0.00 0.00 0.00 74 1026.8
20260906054607 53 91 0.0 0.0 0.00 0.00 0.00 78 1026.8
20260906054107 51 143 0.0 1.0 0.00 0.00 0.00 80 1026.8
20260906053610 50 157 0.0 2.0 0.00 0.00 0.00 80 1026.8
20260906053114 50 178 0.0 1.0 0.00 0.00 0.00 81 1026.8
20260906052611 50 168 0.0 3.0 0.00 0.00 0.00 82 1026.8
20260906052110 49 58 1.0 3.0 0.00 0.00 0.00 83 1026.8
20260906051608 49 68 0.0 3.0 0.00 0.00 0.00 85 1026.5
20260906051110 49 79 1.0 2.0 0.00 0.00 0.00 85 1026.5
20260906050611 49 118 0.0 1.0 0.00 0.00 0.00 85 1026.5
20260906050108 48 68 1.0 1.0 0.00 0.00 0.00 85 1026.5
20260906045611 48 97 0.0 1.0 0.00 0.00 0.00 85 1026.5
20260906045108 49 76 0.0 2.0 0.00 0.00 0.00 84 1026.5
20260906044608 49 130 0.0 3.0 0.00 0.00 0.00 84 1026.5
20260906044108 49 27 1.0 2.0 0.00 0.00 0.00 84 1026.5
20260906043608 49 46 1.0 3.0 0.00 0.00 0.00 84 1026.5
20260906043111 49 114 0.0 1.0 0.00 0.00 0.00 84 1026.5
20260906042611 49 292 0.0 2.0 0.00 0.00 0.00 84 1026.5
20260906042111 49 281 1.0 2.0 0.00 0.00 0.00 84 1026.5
20260906041608 49 313 0.0 1.0 0.00 0.00 0.00 84 1026.5
20260906041118 49 130 0.0 2.0 0.00 0.00 0.00 83 1026.5
20260906040609 49 85 1.0 3.0 0.00 0.00 0.00 83 1026.5
20260906040111 49 94 1.0 2.0 0.00 0.00 0.00 83 1026.1
20260906035608 50 166 0.0 1.0 0.00 0.00 0.00 83 1026.5
20260906035111 50 185 1.0 1.0 0.00 0.00 0.00 83 1026.1
20260906034614 50 201 1.0 2.0 0.00 0.00 0.00 83 1026.1
20260906034111 50 95 1.0 3.0 0.00 0.00 0.00 83 1026.1
20260906033611 50 74 1.0 3.0 0.00 0.00 0.00 83 1026.1
20260906033108 50 179 1.0 3.0 0.00 0.00 0.00 82 1026.1
20260906032611 50 105 1.0 4.0 0.00 0.00 0.00 82 1026.1
20260906032111 50 93 1.0 2.0 0.00 0.00 0.00 82 1026.1
20260906031608 50 335 0.0 1.0 0.00 0.00 0.00 83 1026.1
20260906031111 50 338 0.0 1.0 0.00 0.00 0.00 82 1026.1
20260906030608 50 152 0.0 2.0 0.00 0.00 0.00 82 1026.1
20260906030112 51 108 1.0 2.0 0.00 0.00 0.00 82 1026.1
20260906025611 51 104 0.0 2.0 0.00 0.00 0.00 82 1025.8
20260906025111 51 161 0.0 1.0 0.00 0.00 0.00 82 1025.8
20260906024611 51 180 0.0 2.0 0.00 0.00 0.00 81 1025.8
20260906024108 51 166 0.0 1.0 0.00 0.00 0.00 81 1025.8
20260906023608 51 191 0.0 2.0 0.00 0.00 0.00 81 1025.8
20260906023111 51 118 1.0 2.0 0.00 0.00 0.00 81 1025.8
20260906022608 51 71 1.0 3.0 0.00 0.00 0.00 81 1025.8
20260906022111 51 58 1.0 1.0 0.00 0.00 0.00 81 1025.8
20260906021617 51 27 0.0 1.0 0.00 0.00 0.00 81 1025.8
20260906021111 51 306 0.0 2.0 0.00 0.00 0.00 81 1025.8
20260906020608 52 326 1.0 2.0 0.00 0.00 0.00 81 1025.8
20260906020111 52 308 0.0 1.0 0.00 0.00 0.00 80 1025.5
20260906015608 52 270 0.0 1.0 0.00 0.01 0.00 80 1025.5
20260906015108 52 226 0.0 2.0 0.00 0.02 0.00 80 1025.5
20260906014611 52 150 1.0 1.0 0.00 0.03 0.00 80 1025.5
20260906014108 52 148 0.0 1.0 0.00 0.03 0.00 79 1025.5
20260906013608 52 76 0.0 1.0 0.00 0.03 0.00 79 1025.5
20260906013111 52 167 1.0 3.0 0.00 0.03 0.00 78 1025.5
20260906012611 52 150 2.0 4.0 0.00 0.03 0.00 78 1025.5
20260906012111 53 168 2.0 4.0 0.00 0.03 0.00 78 1025.5
20260906011608 53 119 1.0 4.0 0.00 0.03 0.00 78 1025.5
20260906011111 53 3 2.0 4.0 0.00 0.03 0.00 78 1025.5
20260906010611 53 351 1.0 2.0 0.00 0.03 0.00 79 1025.5
20260906010114 53 321 1.0 1.0 0.00 0.03 0.00 79 1025.5
20260906005608 53 304 0.0 1.0 0.00 0.03 0.00 78 1025.1
20260906005108 53 332 0.0 1.0 0.00 0.03 0.00 78 1025.1
20260906004609 53 306 0.0 1.0 0.00 0.03 0.00 78 1025.5
20260906004108 53 207 0.0 2.0 0.00 0.03 0.00 78 1025.1
20260906003608 53 64 0.0 2.0 0.00 0.03 0.00 78 1025.1
20260906003108 53 100 1.0 2.0 0.00 0.03 0.00 78 1025.1
20260906002614 53 216 0.0 1.0 0.00 0.03 0.00 78 1025.1
20260906002111 53 166 0.0 1.0 0.00 0.03 0.00 78 1025.1
20260906001611 53 203 0.0 1.0 0.00 0.03 0.00 78 1025.1
20260906001111 53 317 0.0 2.0 0.00 0.03 0.00 78 1025.1
20260906000608 53 314 0.0 1.0 0.00 0.03 0.00 78 1025.1
20260906000109 53 309 0.0 2.0 0.00 0.03 0.00 77 1025.1
20260905235609 53 292 1.0 2.0 0.00 0.03 0.00 77 1025.1
20260905235108 53 332 0.0 1.0 0.00 0.03 0.00 77 1025.1
20260905234608 53 313 0.0 2.0 0.00 0.03 0.00 77 1025.1
20260905234108 54 320 1.0 1.0 0.00 0.04 0.00 77 1025.1
20260905233608 54 253 0.0 1.0 0.00 0.04 0.00 77 1025.1
20260905233108 54 261 0.0 1.0 0.00 0.04 0.00 77 1024.7
20260905232614 54 316 0.0 1.0 0.00 0.04 0.00 76 1024.7
20260905232108 54 292 0.0 1.0 0.00 0.04 0.00 76 1024.7
20260905231614 54 331 0.0 1.0 0.00 0.04 0.00 75 1024.7
20260905231108 54 291 1.0 2.0 0.00 0.04 0.00 74 1024.7
20260905230608 55 285 1.0 2.0 0.00 0.04 0.00 75 1024.7
20260905230111 55 240 1.0 2.0 0.00 0.04 0.00 75 1024.7
20260905225608 55 294 1.0 1.0 0.00 0.04 0.00 74 1024.7
20260905225117 55 338 0.0 1.0 0.00 0.04 0.00 74 1024.7
20260905224608 55 24 0.0 1.0 0.00 0.04 0.00 73 1024.7
20260905224111 55 178 0.0 1.0 0.00 0.04 0.00 73 1024.7
20260905223609 55 20 0.0 1.0 0.00 0.04 0.00 73 1024.7
20260905223114 55 301 1.0 1.0 0.00 0.04 0.00 72 1024.4
20260905222608 55 288 0.0 1.0 0.00 0.04 0.00 72 1024.4
20260905222111 56 293 0.0 1.0 0.00 0.04 0.00 72 1024.4
20260905221608 56 314 1.0 2.0 0.00 0.04 0.00 71 1024.4
20260905221111 56 272 1.0 2.0 0.00 0.04 0.00 71 1024.4
20260905220608 56 280 0.0 1.0 0.00 0.04 0.00 70 1024.0
20260905220111 56 227 0.0 1.0 0.00 0.04 0.00 69 1024.0
20260905215611 57 267 0.0 1.0 0.00 0.04 0.00 68 1024.0
20260905215111 57 265 0.0 1.0 0.00 0.04 0.00 68 1024.4
20260905214611 57 317 0.0 1.0 0.00 0.04 0.00 67 1024.4
20260905214107 58 310 0.0 0.0 0.00 0.04 0.00 66 1024.0
20260905213613 58 317 0.0 1.0 0.00 0.04 0.00 65 1024.0
20260905213107 58 306 0.0 1.0 0.00 0.04 0.00 64 1024.0
20260905212607 58 314 0.0 1.0 0.00 0.04 0.00 63 1024.0
20260905212108 58 316 0.0 1.0 0.00 0.04 0.00 63 1024.0
20260905211608 58 323 0.0 1.0 0.00 0.04 0.00 62 1024.0
20260905211107 59 184 0.0 1.0 0.00 0.04 0.00 62 1024.0
20260905210616 59 211 0.0 1.0 0.00 0.04 0.00 61 1024.0
20260905210107 59 237 0.0 1.0 0.00 0.04 0.00 61 1024.0
20260905205607 59 198 0.0 1.0 0.00 0.04 0.00 61 1024.0
20260905205110 59 194 0.0 1.0 0.00 0.04 0.00 62 1024.0
20260905204607 59 210 1.0 1.0 0.00 0.04 0.00 62 1024.0
20260905204107 59 201 0.0 1.0 0.00 0.04 0.00 62 1024.0
20260905203610 59 237 0.0 1.0 0.00 0.04 0.00 61 1023.7
20260905203113 59 238 0.0 2.0 0.00 0.04 0.00 61 1023.7
20260905202607 60 282 0.0 1.0 0.00 0.04 0.00 60 1023.7
20260905202107 60 317 0.0 2.0 0.00 0.04 0.00 59 1023.7
20260905201608 60 325 0.0 2.0 0.00 0.04 0.00 58 1023.7
20260905201107 60 331 1.0 2.0 0.00 0.04 0.00 58 1023.7
20260905200607 60 291 0.0 2.0 0.00 0.04 0.00 58 1023.7
20260905200107 60 279 0.0 1.0 0.00 0.04 0.00 58 1023.7
20260905195607 60 281 0.0 2.0 0.00 0.04 0.00 58 1023.4
20260905195116 61 230 0.0 2.0 0.00 0.04 0.00 58 1023.4
20260905194613 61 267 0.0 2.0 0.00 0.04 0.00 57 1023.4
20260905194108 61 293 1.0 2.0 0.00 0.04 0.00 56 1023.4
20260905193607 62 300 1.0 3.0 0.00 0.04 0.00 56 1023.4
20260905193110 62 315 1.0 3.0 0.00 0.04 0.00 55 1023.0
20260905192613 62 330 1.0 2.0 0.00 0.04 0.00 56 1023.0
20260905192107 62 301 1.0 2.0 0.00 0.04 0.00 55 1023.0
20260905191610 62 296 1.0 3.0 0.00 0.04 0.00 54 1023.4
20260905191107 63 297 1.0 3.0 0.00 0.04 0.00 53 1023.4
20260905190607 63 315 1.0 3.0 0.00 0.04 0.00 52 1023.4
20260905190107 63 304 1.0 3.0 0.00 0.04 0.00 51 1023.0
20260905185607 64 298 1.0 3.0 0.00 0.04 0.00 51 1023.0
20260905185107 64 301 1.0 2.0 0.00 0.04 0.00 50 1023.0
20260905184610 64 284 1.0 2.0 0.00 0.04 0.00 50 1023.0
20260905184114 64 305 1.0 2.0 0.00 0.04 0.00 49 1023.0
20260905183613 65 306 1.0 3.0 0.00 0.04 0.00 49 1023.0
20260905183113 65 304 1.0 2.0 0.00 0.04 0.00 48 1023.0
20260905182610 65 319 1.0 2.0 0.00 0.04 0.00 48 1023.0
20260905182110 65 290 0.0 3.0 0.00 0.04 0.00 47 1022.6
20260905181607 65 322 1.0 4.0 0.00 0.04 0.00 46 1022.6
20260905181107 66 319 1.0 4.0 0.00 0.04 0.00 46 1022.6
20260905180613 66 324 2.0 4.0 0.00 0.04 0.00 45 1022.6
20260905180111 66 313 1.0 4.0 0.00 0.04 0.00 45 1022.3
20260905175607 67 278 1.0 3.0 0.00 0.04 0.00 45 1022.3
20260905175117 67 324 1.0 6.0 0.00 0.04 0.00 44 1022.3
20260905174610 67 313 2.0 8.0 0.00 0.04 0.00 43 1022.3
20260905174107 67 308 3.0 6.0 0.00 0.04 0.00 43 1022.3
20260905173611 68 303 2.0 6.0 0.00 0.04 0.00 42 1022.3
20260905173107 68 310 2.0 8.0 0.00 0.04 0.00 42 1022.3
20260905172607 68 313 1.0 8.0 0.00 0.04 0.00 41 1022.3
20260905172107 69 299 2.0 8.0 0.00 0.04 0.00 41 1021.9
20260905171607 69 317 3.0 10.0 0.00 0.04 0.00 41 1021.9
20260905171107 69 313 4.0 11.0 0.00 0.04 0.00 40 1021.9
20260905170607 69 315 4.0 11.0 0.00 0.04 0.00 40 1021.9
20260905170111 70 304 4.0 9.0 0.00 0.04 0.00 39 1021.9
20260905165607 70 312 4.0 9.0 0.00 0.04 0.00 40 1021.6
20260905165110 70 299 2.0 10.0 0.00 0.04 0.00 39 1021.6
20260905164610 71 302 5.0 10.0 0.00 0.04 0.00 37 1021.6
20260905164107 71 295 3.0 7.0 0.00 0.04 0.00 38 1021.6
20260905163614 71 279 2.0 8.0 0.00 0.04 0.00 38 1021.6
20260905163110 71 301 3.0 9.0 0.00 0.04 0.00 37 1021.6
20260905162607 71 311 4.0 9.0 0.00 0.04 0.00 37 1021.3
20260905162110 71 293 3.0 8.0 0.00 0.04 0.00 37 1021.3
20260905161610 71 304 3.0 13.0 0.00 0.04 0.00 37 1021.3
20260905161107 71 292 4.0 12.0 0.00 0.04 0.00 37 1021.3
20260905160607 71 296 5.0 14.0 0.00 0.04 0.00 37 1021.3
20260905160110 71 305 2.0 11.0 0.00 0.04 0.00 38 1020.9
20260905155607 71 269 3.0 11.0 0.00 0.04 0.00 38 1020.9
20260905155107 71 307 3.0 11.0 0.00 0.04 0.00 38 1020.9
20260905154610 71 300 4.0 13.0 0.00 0.04 0.00 38 1020.9
20260905154107 72 303 4.0 13.0 0.00 0.04 0.00 37 1020.9
20260905153607 72 296 6.0 13.0 0.00 0.04 0.00 37 1020.9
20260905153113 72 305 5.0 12.0 0.00 0.04 0.00 37 1020.9
20260905152608 73 297 3.0 12.0 0.00 0.04 0.00 36 1020.9
20260905152114 73 304 4.0 12.0 0.00 0.04 0.00 36 1020.9
20260905151611 73 304 5.0 14.0 0.00 0.04 0.00 36 1020.9
20260905151111 73 287 6.0 14.0 0.00 0.04 0.00 37 1020.5
20260905150609 73 276 4.0 12.0 0.00 0.04 0.00 36 1020.5
20260905150107 73 310 6.0 16.0 0.00 0.04 0.00 35 1020.5
20260905145608 73 288 6.0 16.0 0.00 0.04 0.00 35 1020.5
20260905145108 74 322 4.0 13.0 0.00 0.04 0.00 35 1020.5
20260905144617 73 265 8.0 13.0 0.00 0.04 0.00 35 1020.5
20260905144110 73 315 4.0 14.0 0.00 0.04 0.00 35 1020.5
20260905143609 73 284 4.0 11.0 0.00 0.04 0.00 36 1020.5
20260905143114 73 308 4.0 13.0 0.00 0.04 0.00 36 1020.5
20260905142608 74 288 5.0 13.0 0.00 0.04 0.00 36 1020.5
20260905142111 74 315 5.0 16.0 0.00 0.04 0.00 35 1020.5
20260905141611 74 299 5.0 12.0 0.00 0.04 0.00 35 1020.5
20260905141108 75 302 4.0 11.0 0.00 0.04 0.00 35 1020.5
20260905140607 75 266 3.0 15.0 0.00 0.04 0.00 34 1020.5
20260905140109 74 293 4.0 15.0 0.00 0.04 0.00 34 1020.2
20260905135614 74 256 5.0 15.0 0.00 0.04 0.00 34 1020.5
20260905135107 74 256 3.0 12.0 0.00 0.04 0.00 34 1020.5
20260905134608 75 237 5.0 17.0 0.00 0.04 0.00 33 1020.2
20260905134108 74 283 5.0 12.0 0.00 0.04 0.00 36 1020.2
20260905133614 74 262 4.0 13.0 0.00 0.04 0.00 37 1020.2
20260905133111 73 257 2.0 13.0 0.00 0.04 0.00 38 1020.2
20260905132608 74 308 4.0 13.0 0.00 0.04 0.00 36 1020.2
20260905132114 75 248 1.0 12.0 0.00 0.04 0.00 39 1020.2
20260905131607 73 257 3.0 10.0 0.00 0.04 0.00 40 1020.2
20260905131107 73 273 4.0 15.0 0.00 0.04 0.00 39 1020.2
20260905130610 74 261 1.0 9.0 0.00 0.04 0.00 39 1020.2
20260905130110 74 267 3.0 11.0 0.00 0.04 0.00 39 1020.2
20260905125611 74 276 3.0 12.0 0.00 0.04 0.00 39 1020.2
20260905125107 73 302 4.0 13.0 0.00 0.04 0.00 39 1020.2
20260905124608 74 296 4.0 12.0 0.00 0.04 0.00 39 1019.8
20260905124110 75 285 4.0 11.0 0.00 0.04 0.00 38 1019.8
20260905123610 76 226 3.0 11.0 0.00 0.04 0.00 39 1019.8
20260905123107 74 298 4.0 9.0 0.00 0.04 0.00 40 1019.8
20260905122610 73 251 1.0 16.0 0.00 0.04 0.00 40 1019.8
20260905122113 74 247 6.0 11.0 0.00 0.04 0.00 39 1019.8
20260905121610 73 274 2.0 10.0 0.00 0.04 0.00 41 1020.2
20260905121110 73 295 4.0 13.0 0.00 0.04 0.00 41 1020.2
20260905120613 73 302 5.0 13.0 0.00 0.04 0.00 42 1019.8
20260905120107 73 247 4.0 16.0 0.00 0.04 0.00 41 1019.8
20260905115611 73 257 8.0 15.0 0.00 0.04 0.00 41 1019.8
20260905115111 73 289 6.0 17.0 0.00 0.04 0.00 41 1019.8
20260905114608 73 284 3.0 11.0 0.00 0.04 0.00 42 1020.2
20260905114107 73 235 4.0 14.0 0.00 0.04 0.00 42 1020.2
20260905113613 73 237 5.0 14.0 0.00 0.04 0.00 41 1020.2
20260905113110 73 242 2.0 14.0 0.00 0.04 0.00 43 1020.2
20260905112607 73 250 4.0 12.0 0.00 0.04 0.00 42 1020.2
20260905112107 73 257 3.0 11.0 0.00 0.04 0.00 44 1020.2
20260905111607 73 257 6.0 12.0 0.00 0.04 0.00 43 1020.2
20260905111113 72 230 2.0 14.0 0.00 0.04 0.00 46 1020.2
20260905110607 71 278 3.0 12.0 0.00 0.04 0.00 46 1020.2
20260905110107 71 290 4.0 14.0 0.00 0.04 0.00 47 1020.5
20260905105607 71 279 5.0 15.0 0.00 0.04 0.00 46 1020.2
20260905105111 72 292 3.0 9.0 0.00 0.04 0.00 46 1020.5
20260905104610 71 269 2.0 10.0 0.00 0.04 0.00 47 1020.5
20260905104108 70 262 5.0 12.0 0.00 0.04 0.00 48 1020.5
20260905103607 70 301 5.0 11.0 0.00 0.04 0.00 48 1020.5
20260905103107 70 262 3.0 13.0 0.00 0.04 0.00 49 1020.5
20260905102610 70 290 4.0 13.0 0.00 0.04 0.00 50 1020.5
20260905102108 70 295 3.0 9.0 0.00 0.04 0.00 50 1020.5
20260905101607 69 300 2.0 11.0 0.00 0.04 0.00 53 1020.5
20260905101107 68 291 5.0 10.0 0.00 0.04 0.00 52 1020.5
20260905100608 69 262 4.0 10.0 0.00 0.04 0.00 51 1020.5
20260905100114 69 244 3.0 13.0 0.00 0.04 0.00 51 1020.5
20260905095611 69 233 3.0 11.0 0.00 0.04 0.00 53 1020.5
20260905095107 68 256 4.0 15.0 0.00 0.04 0.00 54 1020.5
20260905094607 69 252 5.0 13.0 0.00 0.04 0.00 52 1020.5
20260905094107 68 247 2.0 13.0 0.00 0.04 0.00 55 1020.5
20260905093614 68 242 5.0 16.0 0.00 0.04 0.00 54 1020.5
20260905093110 68 261 4.0 11.0 0.00 0.04 0.00 54 1020.5
20260905092613 68 235 3.0 10.0 0.00 0.04 0.00 57 1020.5
20260905092107 67 252 2.0 11.0 0.00 0.04 0.00 57 1020.5
20260905091613 67 293 5.0 11.0 0.00 0.04 0.00 55 1020.5
20260905091108 68 270 2.0 8.0 0.00 0.04 0.00 56 1020.5
20260905090608 67 250 3.0 10.0 0.00 0.04 0.00 58 1020.5
20260905090107 67 269 2.0 10.0 0.00 0.04 0.00 58 1020.5
20260905085607 66 287 3.0 12.0 0.00 0.04 0.00 58 1020.5
20260905085114 66 297 2.0 9.0 0.00 0.04 0.00 59 1020.5
20260905084608 66 261 3.0 15.0 0.00 0.04 0.00 59 1020.5
20260905084116 66 236 4.0 11.0 0.00 0.04 0.00 58 1020.5
20260905083610 66 277 1.0 9.0 0.00 0.04 0.00 60 1020.5
20260905083114 66 248 4.0 9.0 0.00 0.04 0.00 60 1020.2
20260905082608 65 258 2.0 11.0 0.00 0.04 0.00 61 1020.2
20260905082107 66 236 2.0 9.0 0.00 0.04 0.00 61 1020.2
20260905081608 66 243 2.0 9.0 0.00 0.04 0.00 62 1020.2
20260905081110 66 250 2.0 7.0 0.00 0.04 0.00 63 1020.2
20260905080610 65 274 2.0 11.0 0.00 0.04 0.00 64 1020.2
20260905080107 65 281 5.0 11.0 0.00 0.04 0.00 65 1020.2
20260905075614 65 268 2.0 11.0 0.00 0.04 0.00 67 1020.2
20260905075107 64 252 5.0 9.0 0.00 0.04 0.00 68 1020.2
20260905074610 64 234 1.0 9.0 0.00 0.04 0.00 70 1020.2
20260905074108 64 227 2.0 10.0 0.00 0.04 0.00 70 1019.8
20260905073610 63 235 1.0 8.0 0.00 0.04 0.00 72 1019.8
20260905073108 63 242 3.0 10.0 0.00 0.04 0.00 71 1019.8
20260905072607 63 281 4.0 13.0 0.00 0.04 0.00 72 1019.8
20260905072107 62 253 2.0 8.0 0.00 0.04 0.00 73 1019.8
20260905071610 62 266 4.0 8.0 0.00 0.04 0.00 74 1019.8
20260905071107 62 231 1.0 7.0 0.00 0.04 0.00 75 1019.8